Temp
85 85 85 86 86 84 83 82 82 81 81 81 81 82 82 82 83 85 84 84 85 84 85 87 85 87 87 86 86 88 85 89 88 88 91 91 92 92 93 94 95 93 95
82 83 84 85 85 84 83 81 81 80 81 82 82 84 82 84 85 84 83 84 85 84 86 84 85 85 87 84 84 84 88 88 86 85 86 85 89 93 94 93 94 93 96
82 81 82 84 85 83 82 81 81 80 81 82 81 81 81 81 82 82 84 85 85 85 84 85 86 85 86 88 85 85 84 86 86 83 85 84 82 85 92 91 94 91 95
84 83 83 83 84 84 84 83 81 80 81 81 82 79 80 79 84 84 85 85 85 85 85 84 85 84 87 84 86 88 86 86 84 87 87 84 83 84 85 92 93 93 96
84 82 83 84 85 85 84 83 81 80 81 81 81 83 79 85 85 84 82 82 83 85 86 84 84 83 87 85 85 84 84 87 86 86 87 84 87 84 85 85 89 94 95
84 82 78 80 83 85 84 83 80 79 80 80 81 80 80 79 82 82 82 84 86 86 84 85 84 83 84 84 86 84 84 85 85 87 86 86 86 85 86 86 86 86 92
81 81 77 79 80 81 79 75 81 79 80 80 81 81 81 81 81 82 83 82 83 83 84 84 83 85 83 84 84 83 83 85 86 84 87 88 88 88 87 86 87 87 91
80 81 80 76 72 73 80 80 81 80 80 80 80 81 81 84 85 83 84 84 82 82 85 84 85 84 84 84 84 86 88 86 87 84 85 89 89 89 88 87 86 86 88
77 79 81 80 78 72 77 82 79 79 81 82 81 81 81 81 83 81 82 85 83 86 84 85 85 84 84 84 83 86 84 84 85 85 85 88 90 90 90 89 88 86 84
74 73 77 79 79 74 71 74 74 79 79 79 80 82 81 81 82 81 81 82 84 82 82 83 84 83 84 84 82 84 84 83 86 87 84 84 89 89 90 90 90 89 87
66 67 71 73 73 72 71 73 73 79 76 72 74 79 82 83 80 82 82 81 81 81 81 81 82 83 82 83 80 81 83 82 83 83 83 84 84 89 90 89 88 88 88
64 65 67 70 73 73 71 72 73 75 74 77 72 73 79 82 80 80 81 81 81 81 81 81 82 81 84 82 82 82 84 82 82 83 82 83 87 83 84 88 84 86 86
63 63 65 66 70 74 74 70 70 71 70 70 69 69 71 78 79 79 81 81 81 81 81 80 80 81 81 81 82 82 82 83 84 84 83 84 83 82 86 84 86 88 86
62 62 62 63 65 70 70 73 71 72 70 70 69 69 70 73 76 78 78 79 80 81 81 82 81 80 81 82 82 82 82 82 83 84 83 83 84 83 83 84 83 85 84
61 61 61 61 63 64 66 68 69 69 69 69 68 68 69 73 75 76 76 77 78 79 81 81 81 81 81 81 80 81 82 82 82 85 85 85 81 75 77 85 83 83 81
61 61 61 61 61 61 63 64 64 66 69 69 68 69 70 67 67 73 74 75 75 75 77 78 76 77 77 64 65 72 81 82 82 82 82 84 75 76 69 68 69 75 81
62 61 60 59 59 60 61 61 62 64 64 64 65 65 66 67 65 67 69 72 72 74 73 74 76 75 75 61 61 65 80 81 81 81 82 83 90 80 84 72 68 68 66
66 65 65 61 59 60 59 60 62 62 62 62 62 63 63 65 67 68 66 67 69 71 72 73 74 71 68 59 59 62 78 79 80 81 81 81 82 82 81 83 83 84 84
68 68 69 64 61 60 59 58 57 58 60 59 60 62 62 63 64 63 66 67 69 70 71 71 71 66 63 57 58 68 75 76 76 77 79 78 79 62 61 77 81 82 84
64 63 62 62 62 61 61 59 56 56 55 57 58 59 59 59 59 61 64 66 68 69 71 69 67 60 60 56 56 63 73 70 73 73 70 62 62 58 57 69 75 76 81
62 61 63 61 58 60 63 59 60 57 58 58 61 60 61 57 58 62 63 63 64 66 66 65 65 63 62 58 54 55 64 66 69 70 72 72 59 56 55 56 67 69 68
63 65 63 63 64 64 61 58 56 58 58 58 59 59 59 62 59 59 60 60 60 59 62 63 65 65 61 55 54 53 54 56 63 62 64 64 55 52 53 58 60 55 59
63 65 64 61 62 62 63 60 58 59 59 59 58 58 59 59 59 59 59 63 60 60 57 61 63 62 64 63 55 54 54 56 59 61 57 54 52 53 61 61 59 57 78
61 63 62 61 59 60 60 60 59 59 59 57 57 58 58 58 59 62 62 61 61 61 61 59 57 56 60 59 59 59 59 59 62 57 65 61 55 54 59 67 73 77 77
61 62 61 61 59 59 58 59 58 59 58 57 57 58 59 58 58 58 59 60 57 56 59 58 59 58 55 51 47 47 54 54 55 53 66 68 68 69 71 71 72 72 74
59 60 61 60 59 58 58 57 58 58 58 58 59 59 60 60 59 59 57 46 47 45 43 43 49 57 46 44 43 41 42 43 45 59 62 64 65 65 66 67 68 71 70
MSLP
1016.31 1016.92 1017.59 1018.15 1018.60 1019.23 1019.79 1020.24 1020.68 1021.05 1021.36 1021.63 1021.76 1021.87 1021.90 1022.29 1022.42 1022.42 1022.56 1022.73 1022.74 1022.79 1022.93 1022.84 1023.03 1023.07 1023.06 1023.16 1023.01 1022.95 1022.93 1022.66 1022.79 1022.33 1021.84 1022.02 1022.08 1022.01 1022.01 1022.01 1022.02 1022.02 1022.07
1016.28 1016.76 1017.23 1017.84 1018.29 1018.86 1019.44 1020.05 1020.53 1020.96 1021.30 1021.46 1021.60 1021.71 1021.90 1022.09 1022.12 1022.38 1022.57 1022.71 1022.61 1022.76 1022.89 1022.91 1022.94 1023.12 1023.12 1023.28 1023.19 1023.17 1022.85 1022.83 1022.99 1022.65 1022.34 1021.81 1021.88 1021.79 1021.85 1021.90 1021.94 1021.93 1021.90
1015.76 1016.46 1016.93 1017.33 1017.98 1018.57 1019.13 1019.79 1020.34 1020.75 1021.13 1021.52 1021.69 1021.87 1022.05 1022.35 1022.41 1022.44 1022.34 1022.51 1022.69 1022.79 1022.96 1023.04 1023.02 1023.12 1023.11 1023.10 1023.27 1023.27 1023.09 1022.82 1023.08 1023.18 1022.79 1022.13 1022.01 1022.08 1021.86 1021.90 1021.91 1021.99 1021.80
1015.35 1015.96 1016.50 1016.98 1017.44 1018.08 1018.90 1019.55 1020.16 1020.62 1021.04 1021.24 1021.51 1021.65 1021.55 1021.69 1021.75 1021.99 1022.16 1022.21 1022.49 1022.70 1022.89 1023.01 1023.09 1023.14 1023.07 1023.18 1023.15 1023.09 1023.20 1023.12 1022.95 1023.07 1023.08 1023.20 1023.08 1022.33 1021.60 1021.68 1021.75 1021.83 1021.65
1014.74 1015.28 1015.91 1016.29 1016.94 1017.76 1018.44 1019.29 1020.03 1020.54 1020.91 1021.25 1021.44 1021.47 1021.57 1021.56 1021.78 1022.02 1022.18 1022.18 1022.33 1022.49 1022.67 1022.92 1023.04 1023.12 1023.08 1023.24 1023.12 1023.30 1023.29 1023.28 1023.19 1022.97 1023.01 1023.04 1023.00 1023.01 1022.40 1021.62 1021.54 1021.51 1021.59
1014.34 1015.05 1015.70 1016.44 1017.04 1017.73 1018.41 1019.13 1019.91 1020.48 1020.96 1021.26 1021.50 1021.53 1021.48 1021.61 1021.68 1021.85 1021.98 1022.08 1022.09 1022.16 1022.53 1022.69 1022.93 1023.05 1023.13 1023.20 1023.09 1023.21 1023.31 1023.40 1023.45 1023.37 1023.20 1023.01 1022.81 1022.72 1022.50 1022.13 1021.89 1021.73 1021.49
1014.33 1015.10 1015.87 1016.46 1017.09 1017.71 1018.48 1018.98 1019.54 1020.07 1020.67 1021.08 1021.38 1021.59 1021.63 1021.66 1021.63 1021.64 1021.73 1021.84 1021.87 1021.98 1022.27 1022.45 1022.76 1022.85 1023.10 1023.19 1023.23 1023.23 1023.31 1023.35 1023.36 1023.46 1023.32 1023.45 1023.24 1023.12 1022.90 1022.52 1022.16 1021.83 1021.56
1014.36 1014.80 1015.56 1016.45 1017.03 1017.82 1018.39 1018.91 1019.29 1019.72 1020.39 1020.84 1021.19 1021.51 1021.68 1021.69 1021.58 1021.68 1021.67 1021.69 1021.82 1021.86 1022.03 1022.15 1022.38 1022.77 1022.93 1023.01 1023.16 1023.05 1022.99 1023.19 1023.38 1023.49 1023.44 1023.40 1023.41 1023.35 1023.19 1022.79 1022.39 1021.78 1021.56
1014.39 1014.88 1015.57 1016.36 1016.83 1017.44 1018.36 1018.78 1019.28 1019.66 1020.11 1020.66 1021.07 1021.38 1021.53 1021.62 1021.61 1021.71 1021.80 1021.81 1021.78 1021.65 1021.80 1021.96 1022.14 1022.36 1022.68 1022.80 1022.90 1022.94 1023.04 1023.24 1023.44 1023.49 1023.52 1023.28 1023.30 1023.31 1023.24 1023.09 1022.76 1022.28 1021.52
1015.08 1015.57 1015.98 1016.50 1016.96 1017.80 1018.30 1019.06 1019.34 1019.66 1020.09 1020.57 1020.87 1021.10 1021.39 1021.54 1021.66 1021.75 1021.82 1021.88 1021.68 1021.78 1021.93 1021.89 1021.91 1022.07 1022.32 1022.44 1022.76 1022.81 1022.90 1023.19 1023.29 1023.32 1023.45 1023.46 1023.16 1023.12 1023.11 1022.98 1022.84 1022.62 1022.17
1016.35 1016.67 1016.68 1016.95 1017.53 1018.00 1018.42 1018.98 1019.29 1019.61 1020.28 1020.69 1021.08 1021.18 1021.25 1021.36 1021.61 1021.60 1021.61 1021.63 1021.67 1021.75 1021.85 1021.93 1021.94 1022.01 1022.03 1022.11 1022.51 1022.79 1022.90 1023.10 1023.14 1023.32 1023.32 1023.22 1023.27 1022.91 1022.85 1022.88 1022.79 1022.53 1022.33
1017.14 1017.47 1017.62 1017.47 1017.58 1018.00 1018.39 1018.69 1019.24 1019.70 1020.04 1020.30 1020.62 1020.92 1021.26 1021.41 1021.62 1021.51 1021.34 1021.31 1021.51 1021.63 1021.61 1021.64 1021.77 1021.73 1021.88 1022.01 1022.32 1022.65 1022.73 1022.85 1022.88 1022.92 1022.98 1022.90 1022.86 1022.98 1022.89 1022.71 1022.72 1022.61 1022.57
1017.87 1018.00 1018.07 1018.05 1017.73 1017.82 1018.24 1018.56 1019.11 1019.78 1020.33 1020.76 1020.85 1021.15 1021.59 1021.32 1021.43 1021.45 1021.27 1021.16 1021.23 1021.21 1021.22 1021.45 1021.61 1021.72 1021.93 1022.12 1022.38 1022.63 1022.60 1022.65 1022.66 1022.60 1022.66 1022.43 1022.51 1022.60 1022.53 1022.66 1022.49 1022.28 1022.39
1018.19 1018.44 1018.47 1018.42 1018.28 1018.19 1018.48 1018.84 1019.47 1019.81 1020.26 1020.66 1020.82 1021.13 1021.47 1021.63 1021.70 1021.61 1021.31 1021.15 1020.98 1021.14 1021.25 1021.29 1021.37 1021.49 1021.72 1022.03 1022.31 1022.46 1022.46 1022.34 1022.36 1022.32 1022.31 1022.12 1022.07 1022.21 1022.37 1022.41 1022.36 1022.24 1022.21
1018.51 1018.75 1018.90 1019.07 1019.03 1018.97 1018.99 1019.33 1019.72 1020.19 1020.52 1020.89 1020.96 1021.24 1021.71 1021.91 1022.01 1021.84 1021.67 1021.44 1021.27 1021.31 1021.28 1021.23 1021.32 1021.34 1021.59 1021.92 1022.34 1022.33 1022.28 1022.13 1022.00 1021.79 1021.67 1021.55 1021.46 1021.80 1021.93 1022.15 1022.10 1022.10 1022.16
1018.73 1019.08 1019.41 1019.70 1019.79 1019.74 1019.64 1019.73 1020.10 1020.43 1020.56 1020.90 1021.42 1021.73 1021.99 1022.12 1022.13 1022.20 1021.89 1021.92 1021.86 1021.79 1021.78 1021.71 1021.75 1021.72 1021.97 1022.51 1022.49 1022.21 1021.88 1021.77 1021.69 1021.47 1021.36 1021.12 1021.55 1021.44 1021.75 1021.92 1021.91 1022.01 1021.89
1018.85 1019.30 1019.73 1020.03 1020.32 1020.52 1020.55 1020.51 1020.70 1020.97 1021.28 1021.62 1021.90 1022.27 1022.41 1022.54 1022.54 1022.57 1022.28 1022.32 1022.48 1022.35 1022.22 1022.17 1022.19 1022.41 1022.48 1022.83 1022.65 1022.33 1021.67 1021.50 1021.30 1021.13 1020.98 1020.85 1020.51 1020.63 1021.12 1021.25 1021.36 1021.70 1021.53
1018.91 1019.36 1019.90 1020.37 1020.80 1021.03 1021.27 1021.35 1021.53 1021.68 1021.84 1022.48 1022.80 1022.91 1022.81 1022.82 1022.86 1022.97 1022.70 1022.78 1022.98 1022.65 1022.55 1022.68 1022.48 1022.93 1023.51 1023.15 1022.62 1022.30 1021.72 1021.35 1021.21 1021.16 1021.00 1020.90 1021.02 1021.16 1021.36 1021.29 1020.98 1020.87 1020.64
1019.14 1019.60 1019.99 1020.74 1021.22 1021.52 1021.89 1022.00 1022.29 1022.56 1022.75 1023.08 1023.38 1023.41 1023.31 1023.37 1023.43 1023.37 1023.24 1023.18 1023.04 1022.90 1022.79 1023.16 1022.94 1023.63 1024.16 1023.92 1022.96 1022.02 1021.83 1021.64 1021.39 1021.25 1021.04 1021.40 1021.67 1022.55 1021.95 1021.50 1020.81 1020.25 1019.59
1019.77 1020.33 1020.93 1021.33 1021.66 1022.06 1022.26 1022.59 1023.11 1023.30 1023.54 1023.78 1023.99 1024.05 1023.99 1023.99 1024.00 1023.88 1023.73 1023.62 1023.40 1023.32 1023.38 1023.47 1023.74 1024.11 1024.53 1024.63 1023.97 1022.78 1022.57 1022.37 1021.99 1021.64 1021.74 1022.27 1022.85 1022.72 1022.57 1022.20 1021.24 1020.60 1019.82
1020.28 1020.76 1021.23 1021.82 1022.34 1022.71 1022.75 1023.17 1023.65 1023.94 1024.22 1024.31 1024.26 1024.33 1024.33 1024.58 1024.42 1024.30 1024.29 1024.13 1024.09 1023.97 1023.80 1023.80 1024.18 1024.55 1024.62 1025.03 1024.62 1024.43 1023.72 1023.38 1022.77 1022.51 1022.02 1022.12 1022.77 1022.59 1022.48 1022.50 1022.11 1021.40 1020.96
1020.98 1021.17 1021.40 1021.91 1022.56 1022.76 1023.09 1023.52 1024.08 1024.53 1024.59 1024.62 1024.62 1024.66 1024.74 1024.75 1024.77 1024.85 1024.83 1024.61 1024.38 1024.06 1024.01 1024.18 1024.17 1024.44 1024.72 1025.02 1024.98 1025.06 1024.59 1024.29 1023.69 1023.37 1023.10 1022.98 1022.96 1022.73 1022.10 1022.00 1021.42 1021.48 1021.44
1021.26 1021.61 1021.85 1022.47 1022.86 1023.19 1023.31 1023.66 1024.39 1024.63 1024.75 1024.81 1024.93 1025.09 1025.18 1025.13 1025.19 1025.10 1025.00 1024.56 1024.53 1024.47 1024.75 1024.48 1024.51 1024.62 1024.55 1024.73 1025.26 1025.30 1024.82 1024.48 1023.98 1023.42 1023.22 1023.00 1022.67 1022.25 1021.64 1020.85 1021.12 1020.95 1020.14
1021.42 1021.91 1022.31 1022.67 1023.20 1023.60 1023.77 1023.99 1024.41 1024.75 1024.81 1024.96 1025.19 1025.28 1025.30 1025.50 1025.61 1025.53 1025.55 1025.35 1025.22 1025.18 1025.26 1025.14 1025.32 1025.42 1025.07 1025.25 1025.17 1024.57 1024.11 1023.86 1023.45 1023.40 1022.60 1022.29 1022.17 1021.84 1021.33 1020.98 1020.76 1020.40 1019.74
1021.60 1022.08 1022.32 1022.78 1023.34 1023.75 1024.13 1024.45 1024.68 1024.83 1024.81 1024.97 1025.25 1025.44 1025.56 1025.67 1025.71 1025.96 1026.21 1026.12 1026.49 1026.52 1026.20 1026.13 1025.87 1025.90 1026.14 1026.82 1026.89 1026.48 1025.70 1025.22 1024.74 1024.22 1022.70 1022.12 1021.76 1021.46 1021.02 1020.85 1020.81 1020.28 1019.70
1021.34 1021.84 1022.12 1022.69 1023.29 1023.82 1024.19 1024.46 1024.79 1024.94 1024.81 1024.88 1025.03 1025.23 1025.35 1025.50 1025.62 1025.71 1026.37 1027.23 1027.20 1027.32 1027.46 1027.42 1027.15 1026.51 1027.30 1027.33 1027.13 1026.75 1026.09 1025.43 1024.95 1023.99 1023.13 1022.68 1022.17 1021.86 1021.40 1021.03 1020.60 1020.20 1019.88
Wind_Speed
16 15 14 13 13 12 11 11 10 8 6 5 6 4 5 4 3 3 3 4 4 3 1 3 3 2 2 3 2 2 3 3 4 3 2 2 1 1 1 1 2 1 2
14 15 16 15 14 13 12 11 11 9 8 7 6 3 4 3 3 3 3 3 3 3 2 3 3 2 3 1 3 3 1 3 4 3 1 3 3 3 3 2 2 2 2
18 16 16 16 14 14 13 12 11 10 9 8 5 4 4 4 4 4 4 4 4 3 2 2 2 2 2 2 2 2 3 3 3 4 3 1 3 3 1 3 2 2 1
18 17 17 16 16 15 13 13 11 11 10 10 7 7 5 4 4 5 4 4 5 4 5 3 3 2 1 3 3 1 3 2 4 2 3 3 3 3 2 2 2 2 1
19 19 20 18 17 14 14 13 11 11 10 10 9 6 4 3 3 4 5 4 5 5 5 5 4 3 2 2 2 3 3 3 3 4 2 3 2 2 2 2 3 1 2
18 18 13 11 14 13 12 12 12 11 10 10 10 9 7 5 5 5 5 4 4 5 6 5 4 4 3 3 3 3 3 3 3 3 4 4 3 4 3 2 2 3 1
16 15 14 15 14 14 12 8 13 13 12 12 10 9 7 6 6 5 4 5 5 5 7 6 6 5 4 3 3 3 3 3 2 3 3 2 3 3 3 3 2 2 2
15 17 17 14 13 10 10 12 13 14 13 12 11 9 7 5 4 3 3 4 4 3 5 7 6 6 5 4 3 4 3 2 2 2 2 1 1 2 3 3 4 1 0
15 16 16 16 16 12 11 13 11 10 11 12 9 9 8 7 5 5 3 3 3 4 4 5 5 7 7 5 4 4 5 3 3 3 2 2 1 1 1 2 3 3 3
12 11 12 13 12 11 6 2 3 9 6 7 8 8 8 7 5 4 5 4 3 4 4 5 4 4 6 6 6 5 5 5 4 4 4 4 3 3 2 2 1 2 3
7 7 6 7 7 8 10 7 7 9 8 6 3 5 8 7 5 5 4 3 3 5 5 6 5 7 8 8 7 6 6 7 6 5 5 6 4 4 3 3 3 3 3
4 5 5 5 10 11 9 8 6 8 7 10 5 3 10 7 6 6 5 4 5 5 5 5 6 7 5 6 7 7 7 8 7 7 7 7 5 6 4 5 4 4 3
4 4 3 4 7 10 10 8 8 7 8 6 7 6 3 6 6 6 6 5 6 8 6 5 6 5 4 5 6 6 7 8 8 8 8 8 6 7 6 6 6 5 4
3 3 3 3 3 6 6 9 9 9 9 9 9 7 5 3 4 5 4 4 4 5 5 5 5 4 5 5 5 7 7 8 7 7 7 7 7 7 7 7 6 6 6
4 4 4 3 3 3 7 7 8 8 8 8 9 7 5 4 3 4 4 4 4 3 1 3 4 4 4 3 4 6 7 8 8 8 8 9 9 7 8 7 6 6 6
4 5 6 5 5 4 4 7 6 6 6 7 5 7 7 6 4 5 6 5 5 6 5 5 3 4 5 5 4 5 6 7 8 8 8 8 7 11 11 11 12 9 8
8 7 7 8 7 6 5 8 7 8 9 9 7 7 6 6 6 4 6 6 5 4 5 6 6 6 6 11 6 5 5 6 8 8 8 7 8 8 9 10 11 11 13
9 9 10 10 9 9 9 9 10 10 11 11 8 7 7 7 6 5 6 5 2 4 4 5 6 10 10 12 6 2 3 4 5 7 9 8 9 9 8 8 10 9 9
10 9 11 12 10 10 9 10 10 10 10 10 8 8 7 7 7 6 5 4 3 4 5 5 7 10 12 17 16 7 5 5 5 6 6 7 8 18 12 8 10 10 10
10 10 10 11 12 10 10 10 8 8 8 7 7 7 7 6 6 5 5 4 4 4 6 8 9 10 10 15 19 12 6 7 5 5 8 10 11 12 12 10 9 9 8
12 11 11 10 9 7 9 10 8 8 7 6 7 7 7 7 5 5 5 4 4 5 6 8 7 8 9 10 15 16 9 7 5 5 5 6 13 14 11 8 7 5 7
12 12 11 10 8 7 7 8 8 6 6 6 7 7 6 4 5 5 4 5 4 6 6 5 4 5 6 12 12 12 11 11 4 4 5 8 14 14 11 7 8 10 9
10 8 9 9 7 6 6 8 6 5 5 6 7 6 6 6 5 5 4 4 6 4 4 4 4 4 5 6 6 4 7 9 6 6 9 14 13 12 9 4 9 9 6
10 8 9 8 7 5 5 7 6 5 5 6 5 5 5 5 5 4 3 4 4 4 3 4 3 3 5 7 9 9 9 10 8 12 8 9 11 11 9 7 6 6 6
9 9 8 8 8 7 7 6 6 6 6 6 5 4 4 4 5 5 4 4 6 5 3 4 3 4 4 7 9 9 8 8 9 11 6 6 6 7 6 6 7 7 8
13 11 10 9 9 8 7 6 5 5 5 5 4 3 3 3 3 4 6 9 9 9 10 9 7 5 8 7 9 10 11 12 11 4 5 6 6 7 7 8 8 8 8
Wind_Direction
195 194 197 191 192 187 185 188 187 180 180 175 174 172 176 160 173 183 160 177 194 159 182 121 128 94 113 94 81 93 34 61 14 314 37 76 54 143 263 284 308 293 317
194 197 192 194 197 192 192 188 194 181 184 180 180 181 169 166 179 176 174 208 203 154 140 150 133 92 121 100 54 26 38 52 30 356 322 25 125 62 42 20 344 335 323
196 195 196 195 194 196 192 191 194 187 181 182 165 134 130 135 166 175 197 203 197 182 191 168 153 153 225 140 95 69 35 52 70 32 353 9 37 333 48 53 51 356 316
201 197 197 196 199 198 190 190 192 185 187 180 187 186 188 175 176 173 173 183 190 192 185 192 181 170 153 150 125 99 54 12 48 135 75 60 16 359 20 109 47 326 307
197 197 201 201 197 189 190 189 192 188 193 195 206 208 203 186 152 163 163 178 177 193 187 178 170 168 190 165 153 149 81 79 43 40 113 96 80 61 321 28 35 106 32
198 199 195 187 193 186 187 189 190 198 198 199 208 212 218 187 176 176 188 194 186 183 187 176 179 182 187 186 183 150 136 101 92 65 47 45 37 31 14 323 346 335 11
196 194 189 183 181 183 180 177 195 203 204 206 208 213 217 220 216 182 196 188 199 189 179 179 186 188 192 209 197 207 157 159 125 109 72 40 31 26 34 355 27 323 17
193 196 191 171 155 153 193 202 208 210 204 208 215 219 219 229 233 219 189 208 217 210 193 188 188 191 196 199 204 218 213 184 196 168 119 83 35 347 2 3 350 29 26
185 195 191 188 177 166 200 209 208 218 209 212 208 215 224 216 223 214 221 228 224 222 231 221 206 185 200 206 196 223 223 208 234 239 245 232 169 309 300 311 339 349 350
168 174 195 189 185 173 137 167 201 225 211 204 213 217 216 216 206 195 216 231 210 201 229 235 232 229 218 211 209 215 213 216 226 245 237 262 234 228 235 268 268 299 333
133 143 159 170 161 148 162 184 177 208 179 152 144 238 249 223 204 215 210 239 240 208 217 229 236 241 216 211 215 221 217 221 222 236 243 249 251 251 240 240 255 253 257
116 102 136 177 189 180 168 163 161 173 171 177 170 300 266 240 228 226 224 215 216 223 227 233 232 236 249 236 221 220 226 231 222 225 228 243 242 245 239 251 253 268 275
146 130 130 152 190 198 185 153 141 161 150 138 128 107 327 230 218 227 227 207 221 231 204 212 220 218 212 220 237 243 242 241 247 236 227 230 223 243 253 252 259 257 261
156 131 100 89 58 172 145 169 155 157 150 154 140 134 149 137 186 159 153 153 170 207 214 209 208 199 204 225 240 244 246 249 251 242 245 246 239 242 239 243 248 252 258
142 137 128 99 90 61 115 130 137 148 143 145 120 126 120 110 121 126 105 88 85 84 167 207 199 193 203 231 243 241 255 256 260 249 239 242 246 245 251 263 249 255 259
136 115 116 105 86 66 86 100 102 99 126 108 116 139 128 103 69 75 90 73 68 67 61 64 78 89 74 44 17 255 246 246 253 261 257 252 234 246 235 238 250 258 252
147 131 118 109 100 79 75 86 90 89 86 89 91 104 114 120 104 91 74 74 70 64 74 72 72 77 49 6 1 353 252 248 253 252 262 265 252 230 259 230 234 248 239
137 132 121 111 100 96 82 78 83 89 87 82 74 75 83 87 92 95 84 71 68 95 76 70 99 85 38 11 14 324 304 278 282 288 290 287 287 284 294 289 273 266 257
130 123 118 116 106 100 94 86 72 70 76 80 74 69 73 78 70 65 61 62 70 90 89 76 93 73 43 18 18 20 32 23 14 350 336 337 320 14 358 294 282 283 280
129 127 120 118 111 110 105 93 85 81 75 74 71 61 60 66 67 60 65 50 84 96 106 95 80 95 63 34 24 16 33 37 16 39 40 59 16 357 352 348 335 299 316
134 133 130 116 110 107 111 102 104 93 94 92 88 75 71 67 42 69 56 76 80 95 97 95 83 73 58 55 44 20 37 18 9 357 8 2 345 335 324 314 297 284 304
138 138 131 124 117 120 117 110 99 103 100 100 92 79 71 57 72 72 68 59 74 70 63 66 80 66 68 49 35 24 25 12 359 350 343 324 329 314 311 299 283 283 291
146 141 134 128 123 125 131 126 121 120 111 108 102 96 86 77 66 65 55 63 64 66 49 38 40 33 32 30 30 31 17 20 346 7 317 295 292 287 282 316 303 276 288
158 151 148 141 132 124 117 116 125 128 123 107 99 101 98 93 82 89 81 77 57 65 64 68 43 23 24 20 3 1 358 356 345 348 325 308 274 267 274 296 302 315 314
168 171 164 160 155 152 143 139 140 148 135 125 122 125 114 100 100 73 46 81 62 30 65 53 41 25 31 17 355 348 345 342 335 321 329 340 349 340 340 337 326 324 321
176 179 173 170 165 168 162 153 153 166 157 150 148 124 131 118 101 117 119 67 58 64 59 54 34 93 67 8 346 334 328 320 323 322 345 343 348 342 341 334 330 327 323